FW4331 Weather Reports


time (UTC)temp
C
wind
direction
speed
KPH
gust
KPH
rain 1hr
cm
rain 24hr
cm
rain mn
cm
humidity
%
barometer
mb
20260906144550 23 22 6.4 14.5 0.00 0.00 0.00 23 1014.1
20260906143105 23 53 4.8 12.9 0.00 0.00 0.00 25 1014.1
20260906141543 22 52 6.4 16.1 0.00 0.00 0.00 26 1014.1
20260906140044 22 34 4.8 12.9 0.00 0.00 0.00 27 1014.2
20260906134540 22 356 6.4 12.9 0.00 0.00 0.00 28 1014.2
20260906133028 21 319 4.8 14.5 0.00 0.00 0.00 30 1014.1
20260906131524 20 6 3.2 12.9 0.00 0.00 0.00 31 1013.9
20260906130022 20 30 4.8 11.3 0.00 0.00 0.00 32 1013.9
20260906124535 20 32 4.8 12.9 0.00 0.00 0.00 32 1013.9
20260906123025 20 33 1.6 12.9 0.00 0.00 0.00 32 1013.9
20260906121511 20 44 3.2 16.1 0.00 0.00 0.00 33 1013.6
20260906120006 19 20 3.2 9.7 0.00 0.00 0.00 35 1013.5
20260906114502 18 357 4.8 9.7 0.00 0.00 0.00 36 1013.1
20260906113058 18 31 3.2 11.3 0.00 0.00 0.00 36 1013.1
20260906111556 -17 0.0 0.0 0.00 0.00 0.00 1013.0
20260906110050 -17 0.0 0.0 0.00 0.00 0.00 1012.8
20260906104546 -17 0.0 0.0 0.00 0.00 0.00 1012.7
20260906103039 -17 0.0 0.0 0.00 0.00 0.00 1012.6
20260906101534 -17 0.0 0.0 0.00 0.00 0.00 1012.4
20260906100030 -17 13 3.2 8.0 0.00 0.00 0.00 41 1012.4
20260906094526 18 357 1.6 8.0 0.00 0.00 0.00 41 1012.1
20260906093024 18 19 1.6 6.4 0.00 0.00 0.00 42 1012.0
20260906091520 18 21 1.6 8.0 0.00 0.00 0.00 41 1011.9
20260906090018 18 44 3.2 11.3 0.00 0.00 0.00 41 1011.7
20260906084516 18 356 4.8 9.7 0.00 0.00 0.00 42 1011.4
20260906083014 18 17 4.8 9.7 0.00 0.00 0.00 42 1011.4
20260906081610 18 11 4.8 9.7 0.00 0.00 0.00 43 1011.4
20260906080022 18 350 0.0 6.4 0.00 0.00 0.00 43 1011.4
20260906074505 18 32 1.6 9.7 0.00 0.00 0.00 46 1011.2
20260906073002 17 20 0.0 0.0 0.00 0.00 0.00 48 1011.4
20260906071600 17 20 0.0 0.0 0.00 0.00 0.00 48 1011.3
20260906064555 18 20 0.0 0.0 0.00 0.00 0.00 48 1011.5
20260906063058 18 20 0.0 0.0 0.00 0.00 0.00 47 1011.3
20260906061551 18 20 0.0 0.0 0.00 0.00 0.00 46 1011.2
20260906060147 19 20 0.0 0.0 0.00 0.00 0.00 46 1011.2
20260906054546 19 20 0.0 0.0 0.00 0.00 0.00 45 1011.1
20260906053055 19 20 0.0 0.0 0.00 0.00 0.00 45 1011.2
20260906051539 19 20 0.0 0.0 0.00 0.00 0.00 46 1011.3
20260906050048 20 20 0.0 0.0 0.00 0.00 0.00 46 1011.4
20260906044534 20 20 0.0 0.0 0.00 0.00 0.00 46 1011.3
20260906043032 20 20 0.0 0.0 0.00 0.00 0.00 47 1011.5
20260906041527 20 20 0.0 0.0 0.00 0.00 0.00 45 1011.5
20260906040022 20 20 0.0 0.0 0.00 0.00 0.00 45 1011.6
20260906034520 21 20 0.0 0.0 0.00 0.00 0.00 45 1011.7
20260906033024 21 20 0.0 0.0 0.00 0.00 0.00 44 1011.8
20260906031517 21 20 0.0 0.0 0.00 0.00 0.00 45 1011.5
20260906030020 21 20 0.0 0.0 0.00 0.00 0.00 48 1011.6
20260906024513 21 44 0.0 0.0 0.00 0.00 0.00 48 1011.5
20260906023012 21 51 0.0 0.0 0.00 0.00 0.00 48 1011.4
20260906021539 21 51 0.0 0.0 0.00 0.00 0.00 48 1011.2
20260906020011 21 51 0.0 0.0 0.00 0.00 0.00 49 1011.3
20260906014508 21 51 0.0 0.0 0.00 0.00 0.00 49 1011.2
20260906013048 21 265 0.0 0.0 0.00 0.00 0.00 48 1011.0
20260906011505 21 265 0.0 0.0 0.00 0.00 0.00 48 1010.7
20260906010036 21 265 0.0 0.0 0.00 0.00 0.00 47 1010.5
20260906004501 21 265 0.0 0.0 0.00 0.00 0.00 46 1010.3
20260906003104 21 265 0.0 0.0 0.00 0.00 0.00 46 1010.3
20260906001558 22 266 0.0 0.0 0.00 0.00 0.00 46 1010.1
20260906000058 22 275 0.0 3.2 0.00 0.00 0.00 45 1010.2
20260905234554 22 264 0.0 3.2 0.00 0.00 0.00 46 1010.1
20260905233052 22 268 1.6 6.4 0.00 0.00 0.00 46 1010.1
20260905231550 22 257 0.0 3.2 0.00 0.00 0.00 46 1010.1
20260905230050 22 283 1.6 4.8 0.00 0.00 0.00 45 1009.9
20260905224551 23 290 0.0 6.4 0.00 0.00 0.00 45 1009.8
20260905223044 23 283 0.0 3.2 0.00 0.00 0.00 44 1009.8
20260905221541 23 268 0.0 4.8 0.00 0.00 0.00 44 1009.8
20260905220038 23 345 0.0 0.0 0.00 0.00 0.00 43 1009.8
20260905214536 23 269 0.0 0.0 0.00 0.00 0.00 44 1009.7
20260905213035 24 356 0.0 0.0 0.00 0.00 0.00 42 1009.5
20260905211536 24 360 0.0 1.6 0.00 0.00 0.00 39 1009.3
20260905210030 25 22 0.0 6.4 0.00 0.00 0.00 37 1009.2
20260905204535 26 13 4.8 9.7 0.00 1.98 0.00 30 1009.2
20260905203026 27 60 3.2 8.0 0.00 1.98 0.00 28 1009.2
20260905201523 27 61 3.2 9.7 0.00 1.98 0.00 26 1009.1
20260905200027 27 31 1.6 6.4 0.00 1.98 0.00 26 1009.2
20260905194554 27 44 1.6 6.4 0.00 1.98 0.00 26 1009.3
20260905193016 27 301 3.2 8.0 0.00 1.98 0.00 26 1009.3
20260905191511 26 53 1.6 9.7 0.00 1.98 0.00 28 1009.6
20260905190122 26 30 1.6 8.0 0.00 1.98 0.00 29 1009.7
20260905184515 26 335 1.6 4.8 0.00 1.98 0.00 31 1009.8
20260905183009 26 57 1.6 6.4 0.00 1.98 0.00 30 1009.9
20260905181601 26 26 0.0 9.7 0.00 1.98 0.00 31 1009.8
20260905180058 26 40 4.8 12.9 0.00 1.98 0.00 30 1009.9
20260905174556 26 354 1.6 12.9 0.00 1.98 0.00 31 1010.0
20260905173053 25 7 4.8 11.3 0.00 1.98 0.00 32 1010.3
20260905171550 25 37 0.0 8.0 0.00 1.98 0.00 34 1010.4
20260905170048 24 96 0.0 3.2 0.00 1.98 0.00 36 1010.5
20260905164547 24 17 0.0 1.6 0.00 1.98 0.00 37 1011.2
20260905163045 24 45 0.0 6.4 0.00 1.98 0.00 36 1011.2
20260905161542 24 345 0.0 6.4 0.00 1.98 0.00 36 1011.4
20260905160042 24 349 0.0 6.4 0.00 1.98 0.00 38 1011.5
20260905154600 25 3 0.0 6.4 0.00 1.98 0.00 37 1011.6
20260905153036 25 3 0.0 6.4 0.00 1.98 0.00 36 1011.4
20260905151536 25 71 1.6 6.4 0.00 1.98 0.00 35 1011.5
20260905150032 25 319 0.0 8.0 0.00 1.98 0.00 35 1011.8